Location: Breitenau
(50.4965°N, 7.6890°E)
Time: 13:47:52
(UTC+00:00)

Daily predictions for brighter satellites

Satellite Brightness Start Highest point End
(mag) Time Altitude Azimuth Time Altitude Azimuth Time Altitude Azimuth
STARLINK-1097 3.8 18:24:53 10° WNW 18:29:02 71° NNE 18:33:10 10° E
Cosmos 1766 3.3 18:25:33 10° S 18:29:29 67° E 18:33:28 10° NNE
STARLINK-1066 4.4 18:27:47 10° W 18:30:41 32° SSW 18:33:33 10° SSE
ADEOS Rocket 3.3 18:23:43 10° NNE 18:30:42 87° WNW 18:36:52 10° SSW
STARLINK-1081 4.4 18:28:17 10° W 18:31:07 32° SW 18:33:57 10° SSE
USA 234 4.1 18:25:48 10° ENE 18:31:18 28° SE 18:36:47 10° S
STARLINK-67 2.3 18:28:57 10° WSW 18:31:30 76° SSE 18:34:06 10° ENE
STARLINK-1070 4.4 18:28:44 10° W 18:31:34 31° SW 18:34:23 10° SSE
STARLINK-1069 4.4 18:29:10 10° W 18:32:01 32° SW 18:34:52 10° SSE
STARLINK-1201 3.3 18:28:52 10° SW 18:32:01 49° SSE 18:35:13 10° ENE
STARLINK-1085 4.4 18:29:36 10° W 18:32:28 31° SW 18:35:19 10° SSE
STARLINK-1086 4.4 18:30:07 10° W 18:32:55 31° SW 18:35:43 10° SSE
Cosmos 1626 2.4 18:29:23 10° N 18:32:59 45° ENE 18:36:32 10° SSE
STARLINK-1095 4.4 18:30:34 10° W 18:33:22 31° SW 18:36:10 10° SSE
STARLINK-1224 4.1 18:29:44 10° SW 18:33:32 39° SE 18:37:20 10° ENE
STARLINK-1077 4.4 18:31:00 10° W 18:33:49 30° SW 18:36:36 10° SSE
STARLINK-1099 3.7 18:29:53 10° WNW 18:34:02 73° NNE 18:38:10 10° E
STARLINK-1075 4.4 18:31:28 10° W 18:34:16 30° SW 18:37:03 10° SSE
STARLINK-1093 4.5 18:31:52 10° W 18:34:42 30° SW 18:37:32 10° SSE
STARLINK-1203 4.0 18:31:21 10° SW 18:35:08 42° SSE 18:38:54 10° ENE
STARLINK-1074 4.5 18:32:20 10° W 18:35:09 30° SW 18:37:58 10° SSE
STARLINK-1087 4.5 18:32:49 10° W 18:35:36 30° SW 18:38:22 10° SSE
STARLINK-1088 4.5 18:33:17 10° W 18:36:04 29° SW 18:38:49 10° SSE
H-2A R/B 2.1 18:30:55 10° SSE 18:36:09 63° ENE 18:41:16 10° N
STARLINK-1115 4.5 18:33:42 10° W 18:36:31 29° SW 18:39:18 10° SSE
HJ-1C 3.7 18:33:51 10° S 18:37:11 72° WSW 18:40:34 10° NNW
STARLINK-1225 4.1 18:34:18 10° SW 18:38:09 42° SE 18:42:01 10° ENE
SL-16 R/B 2.6 18:32:56 10° S 18:38:11 40° ESE 18:43:25 10° NE
STARLINK-1072 4.2 18:34:43 10° WNW 18:38:38 50° SSW 18:42:33 10° SE
STARLINK-1104 3.7 18:34:52 10° WNW 18:39:01 76° NNE 18:43:10 10° ESE
Cosmos 2333 Rocket 3.8 18:35:09 10° WSW 18:40:27 39° NW 18:45:46 10° NNE
SL-08 RB Rocket 4.2 18:36:33 10° SE 18:40:47 41° ENE 18:45:06 10° N
Resurs 01 Rocket 3.0 18:39:17 10° ESE 18:42:40 22° ENE 18:46:04 10° N
STARLINK-1230 4.0 18:38:59 10° SW 18:42:52 44° SSE 18:46:46 10° ENE
STARLINK-1096 4.3 18:39:05 10° WNW 18:42:58 47° SSW 18:46:51 10° SE
STARLINK-1144 3.7 18:39:51 10° WNW 18:44:01 78° NNE 18:47:59 11° ESE
STARLINK-1233 2.9 18:42:20 10° SW 18:45:25 61° SSE 18:48:33 10° ENE
STARLINK-1212 2.9 18:42:48 10° SW 18:45:53 61° SSE 18:48:59 10° ENE
STARLINK-1105 2.9 18:43:13 10° SW 18:46:19 62° SSE 18:49:27 10° ENE
Cosmos 1302 Rocket 4.0 18:41:25 10° NNW 18:46:43 71° ENE 18:51:59 10° SSE
FREGAT/IRIS 2.3 18:44:03 10° SSE 18:46:43 63° ENE 18:49:27 10° N
STARLINK-1206 2.9 18:43:43 10° SW 18:46:48 62° SSE 18:49:54 10° ENE
STARLINK-1247 2.9 18:44:09 10° SW 18:47:14 62° SSE 18:50:20 10° ENE
STARLINK-1243 3.9 18:43:45 10° SW 18:47:40 47° SSE 18:51:36 10° ENE
STARLINK-1227 2.9 18:44:35 10° SW 18:47:40 63° SSE 18:50:48 10° ENE
STARLINK-1079 4.4 18:44:09 10° WNW 18:48:00 44° SSW 18:51:51 10° SE
STARLINK-1218 2.9 18:45:04 10° SW 18:48:08 63° SSE 18:51:14 10° ENE
Abrixas rocket 4.2 18:47:50 10° SSE 18:48:33 11° SE 18:49:06 10° SE
STARLINK-1226 2.9 18:45:30 10° SW 18:48:35 64° SSE 18:51:42 10° ENE
STARLINK-1103 3.6 18:44:49 10° WNW 18:48:59 81° NNE 18:52:45 12° ESE
STARLINK-1254 2.9 18:45:55 10° WSW 18:49:02 64° SSE 18:52:09 10° ENE
Cosmos 304 Rocket 4.3 18:44:39 10° NNW 18:49:23 61° WSW 18:54:05 10° S
STARLINK-1215 2.9 18:46:24 10° WSW 18:49:29 65° SSE 18:52:36 10° ENE
Cosmos 1709 Rocket 4.0 18:43:33 10° N 18:49:48 71° ENE 18:55:56 10° SSE
STARLINK-1231 2.9 18:46:51 10° WSW 18:49:56 65° SSE 18:53:02 10° ENE
SeaSat 1 3.5 18:45:28 10° NNE 18:50:15 50° NW 18:55:00 10° SW
STARLINK-1232 2.8 18:47:45 10° WSW 18:50:51 66° SSE 18:53:56 10° ENE
STARLINK-1217 2.8 18:48:12 10° WSW 18:51:17 66° SSE 18:54:24 10° ENE
Cosmos 1953 3.7 18:48:30 10° SE 18:51:22 20° E 18:54:16 10° NE
STARLINK-1208 2.9 18:48:36 10° WSW 18:51:43 67° SSE 18:54:51 10° ENE
STARLINK-1229 2.8 18:49:05 10° WSW 18:52:11 67° SSE 18:55:17 10° ENE
STARLINK-1116 4.5 18:48:35 10° WNW 18:52:25 42° SSW 18:56:14 10° SE
STARLINK-1236 3.8 18:48:29 10° SW 18:52:26 50° SSE 18:56:24 10° ENE
STARLINK-1271 2.8 18:49:32 10° WSW 18:52:38 68° SSE 18:55:45 10° ENE
STARLINK-1270 2.8 18:50:01 10° WSW 18:53:06 68° SSE 18:56:12 10° ENE
STARLINK-1154 2.8 18:50:27 10° WSW 18:53:32 68° SSE 18:56:39 10° ENE
STARLINK-1101 3.6 18:49:48 10° WNW 18:53:58 84° NNE 18:57:32 14° ESE
STARLINK-1197 2.8 18:51:20 10° WSW 18:54:26 69° SSE 18:57:31 10° ENE
STARLINK-1189 2.8 18:51:48 10° WSW 18:54:54 70° SSE 18:57:57 10° ENE
Cosmos 1269 Rocket 4.0 18:49:48 10° S 18:55:01 65° ESE 19:00:18 10° NNE
MONITOR-E 3.6 18:52:37 10° SSE 18:55:14 78° E 18:57:54 10° N
STARLINK-1187 2.8 18:52:37 10° WSW 18:55:45 77° SSE 18:58:50 10° ENE
STARLINK-1188 2.8 18:52:42 10° WSW 18:55:48 71° SSE 18:58:49 11° ENE
STARLINK-1198 2.8 18:52:42 10° WSW 18:55:48 71° SSE 18:58:49 11° ENE
STARLINK-1235 2.8 18:53:18 10° WSW 18:56:27 83° SSE 18:59:33 10° ENE
CZ-4C R/B 4.0 18:51:43 10° W 18:56:44 31° NNW 19:02:38 10° NE
STARLINK-1199 2.8 18:54:38 10° WSW 18:57:45 73° SSE 19:00:44 11° ENE
STARLINK-1191 2.8 18:55:04 10° WSW 18:58:12 73° SSE 19:01:10 11° ENE
STARLINK-1210 2.8 18:55:32 10° WSW 18:58:39 74° SSE 19:01:36 11° ENE
STARLINK-1102 3.6 18:54:46 10° WNW 18:58:56 87° NNE 19:02:19 15° ESE
STARLINK-1221 2.8 18:55:58 10° WSW 18:59:06 74° SSE 19:02:02 12° ENE
STARLINK-1219 2.8 18:56:26 10° WSW 18:59:33 74° SSE 19:02:29 12° ENE
STARLINK-1222 2.8 18:56:53 10° WSW 19:00:01 75° SSE 19:02:54 12° ENE
ISS -3.8 18:56:47 10° WNW 19:00:09 85° NNE 19:02:41 16° E
STARLINK-1211 2.8 18:57:20 10° WSW 19:00:27 75° SSE 19:03:20 12° ENE
STARLINK-1214 2.8 18:57:46 10° WSW 19:00:55 76° SSE 19:03:46 12° ENE
Cosmos 2297 3.9 18:55:28 10° NNW 19:01:09 74° WSW 19:06:49 10° SSE
STARLINK-1245 2.8 18:58:16 10° WSW 19:01:22 76° SSE 19:04:10 12° ENE
STARLINK-1238 2.8 18:58:38 10° WSW 19:01:46 77° SSE 19:04:37 12° ENE
STARLINK-1269 3.7 18:58:14 10° SW 19:02:14 57° SSE 19:06:12 10° ENE
STARLINK-1205 2.8 18:59:34 10° WSW 19:02:41 77° SSE 19:05:27 13° ENE
BREEZE-M DEB (TANK) 4.0 18:54:03 10° W 19:02:45 82° S 19:05:20 16° E
Cosmos 1455 Rocket 3.1 18:58:27 10° SSW 19:02:48 81° W 19:07:12 10° N
STARLINK-1204 2.8 19:00:02 10° WSW 19:03:09 78° SSE 19:05:54 13° ENE
Cosmos 2084 Rocket 3.7 18:59:02 10° NW 19:03:28 60° NE 19:06:58 16° ESE
STARLINK-1111 3.6 18:59:46 10° WNW 19:03:56 90° W 19:07:06 17° ESE
STARLINK-1200 3.6 19:03:01 10° SW 19:07:02 61° SSE 19:10:50 11° ENE
Cosmos 2237 Rocket 2.9 19:02:05 10° SW 19:07:38 58° NW 19:13:13 10° NNE
CZ-2C R/B 3.4 19:03:38 10° NNE 19:08:09 29° E 19:12:37 10° SSE
Cosmos 1626 Rocket 3.5 19:04:18 10° N 19:08:44 79° ENE 19:13:06 10° SSE
STARLINK-1073 3.6 19:04:45 10° WNW 19:08:55 87° SSW 19:11:53 18° ESE
STARLINK-1192 3.6 19:07:44 10° SW 19:11:47 64° SSE 19:15:24 13° ENE
STARLINK-1121 3.6 19:09:43 10° WNW 19:13:52 83° SSW 19:16:39 20° ESE
Cosmos 292 Rocket 4.0 19:10:17 10° NNW 19:14:59 54° ENE 19:18:32 17° SE
ARGOS 3.4 19:11:10 10° S 19:16:34 75° WSW 19:22:00 10° NNW
STARLINK-1244 3.5 19:12:38 10° SW 19:16:42 68° SSE 19:20:08 14° ENE
Cosmos 1602 Rocket 3.5 19:12:15 10° N 19:16:45 75° E 19:21:11 10° SSE
IRIDIUM 104 4.4 19:12:58 10° N 19:18:07 56° E 19:23:15 10° SSE
STARLINK-1106 3.6 19:14:40 10° WNW 19:18:50 79° SSW 19:21:25 22° ESE
STARLINK-1138 3.5 19:17:12 10° WSW 19:21:17 71° SSE 19:24:34 15° ENE
STARLINK-1234 2.9 19:19:14 10° WSW 19:22:12 72° NNW 19:24:04 20° ENE
MOS 1 Rocket 4.0 19:17:41 10° NNE 19:22:35 40° E 19:27:39 10° SSE
STARLINK-1112 3.6 19:19:41 10° WNW 19:23:50 76° SSW 19:26:14 24° ESE
USA 186 3.1 19:20:35 10° S 19:23:52 43° W 19:27:07 10° NNW
STARLINK-1143 3.5 19:22:06 10° WSW 19:26:11 75° SSE 19:29:16 17° ENE
MetOp-A 4.1 19:21:53 10° SSE 19:27:14 81° ENE 19:32:38 10° NNW
IRIDIUM 114 4.3 19:22:06 10° N 19:27:19 67° E 19:32:30 10° SSE
COSMOS 2455 4.3 19:23:01 10° NNW 19:27:55 25° NNE 19:32:01 13° ENE
STARLINK-1128 3.7 19:24:40 10° WNW 19:28:49 72° SSW 19:31:01 26° SE
CZ-2C R/B 3.6 19:24:07 10° S 19:29:03 54° W 19:33:48 10° NNW
Cosmos 1544 Rocket 4.2 19:26:05 10° SSW 19:30:26 58° WNW 19:34:50 10° N
Cosmos 1437 3.3 19:28:15 10° N 19:31:05 34° ENE 19:31:25 33° E
Cosmos 1470 2.8 19:28:30 10° SSW 19:32:23 81° W 19:36:19 10° N
STARLINK-1113 3.7 19:29:39 10° WNW 19:33:47 68° SSW 19:35:47 29° SE
STARLINK-1241 3.4 19:30:27 10° WSW 19:34:30 82° SSE 19:37:13 20° ENE
SPOT 3 Rocket 3.7 19:30:29 10° SSE 19:35:43 80° WSW 19:40:58 10° NNW
Cosmos 1825 Rocket 3.8 19:31:28 10° N 19:35:48 48° ENE 19:37:53 27° SE
IRIDIUM 103 4.2 19:31:15 10° N 19:36:31 79° E 19:41:44 10° S
NOSS 3-4 (A) 4.3 19:31:29 10° NW 19:37:57 46° NNE 19:42:42 21° E
NOSS 3-4 (C) 4.3 19:31:35 10° NW 19:38:02 46° NNE 19:42:48 21° E
STARLINK-1119 3.8 19:34:37 10° WNW 19:38:45 64° SSW 19:40:34 31° SE
STARLINK-1239 3.5 19:35:22 10° WSW 19:39:25 85° SSE 19:41:56 22° ENE
Cosmos 2369 Rocket 2.2 19:33:51 10° NNW 19:39:36 78° ENE 19:43:14 23° SE
SJ-6B 4.1 19:38:05 10° S 19:41:59 43° W 19:45:57 10° NNW
STARLINK-1114 3.8 19:39:39 10° WNW 19:43:45 61° SSW 19:45:24 33° SE
Cosmos 1726 2.3 19:42:57 34° SE 19:44:07 46° E 19:47:43 10° NNE
STARLINK-1240 3.5 19:40:05 10° WSW 19:44:08 88° SSE 19:46:29 24° ENE
Aureole 2 Rocket 2.3 19:41:11 10° NNW 19:44:43 86° ENE 19:45:56 38° SSE
Cosmos 1758 Rocket 3.4 19:41:13 10° N 19:45:36 70° ENE 19:47:54 27° SSE
Cosmos 2263 4.2 19:40:01 10° NNW 19:45:38 66° ENE 19:48:35 28° SE
Cosmos 1758 3.8 19:42:19 10° SSW 19:46:23 64° WNW 19:50:29 10° N
SAR-Lupe-2 4.4 19:44:47 10° NNE 19:47:28 31° ENE 19:47:28 31° ENE
Cosmos 1908 4.4 19:48:58 26° ENE 19:48:58 26° ENE 19:51:32 10° NNE
CZ-2C R/B 3.8 19:43:34 10° NNE 19:48:22 85° WNW 19:53:05 10° SSW
STARLINK-1130 (DARKSAT) 3.9 19:44:37 10° WNW 19:48:42 57° SSW 19:50:10 35° SSE
STARLINK-1216 3.5 19:44:49 10° WSW 19:48:53 88° NNW 19:51:03 27° ENE
NOSS 3-3 (A) 4.3 19:43:57 10° S 19:49:23 40° ESE 19:55:27 10° NE
NOSS 3-3 (C) 4.3 19:44:05 10° S 19:49:29 40° ESE 19:55:32 10° NE
ATLAS CENTAUR R/B 4.2 19:49:25 10° NNW 19:51:03 12° N 19:52:38 10° NNE
Cosmos 1953 Rocket 3.8 19:47:45 10° N 19:52:05 49° ENE 19:53:21 37° ESE
STARLINK-1209 3.2 19:49:18 10° W 19:52:12 55° N 19:52:50 43° NE
STARLINK-1084 4.0 19:49:35 10° WNW 19:53:39 54° SSW 19:54:56 37° SSE
STARLINK-1237 3.5 19:49:35 10° WSW 19:53:40 85° NNW 19:55:38 29° ENE
STARLINK-1228 3.2 19:51:31 10° W 19:54:22 54° N 19:54:50 46° NNE
Terra 3.4 19:53:53 19° ENE 19:54:34 19° ENE 19:57:55 10° NNE
Cosmos 2184 Rocket 4.0 19:48:18 10° N 19:54:41 84° E 19:59:37 17° SSE
IRIDIUM 106 4.5 19:49:33 10° N 19:54:47 75° W 19:59:59 10° S
Spot 2 Rocket 3.6 19:55:41 33° SE 19:57:48 57° ENE 20:02:49 10° N
STARLINK-1202 3.5 19:54:20 10° WSW 19:58:24 82° NNW 20:00:11 32° ENE
STARLINK-1098 4.1 19:54:36 10° WNW 19:58:37 50° SSW 19:59:43 39° SSE
Cosmos 1606 Rocket 3.7 19:59:07 39° SE 20:00:20 52° E 20:04:41 10° NNE
Cosmos 1943 Rocket 2.5 19:55:29 10° NW 20:00:57 61° WSW 20:04:35 21° S
SPOT 1/Viking Rocket 4.0 20:00:50 34° ESE 20:02:20 43° ENE 20:07:16 10° N
ERBS 4.1 19:59:49 10° WNW 20:02:49 28° N 20:04:36 18° NE
STARLINK-1123 4.2 19:59:35 10° WNW 20:03:35 47° SSW 20:04:30 39° S
Cosmos 1943 3.4 20:01:04 20° S 20:04:39 44° ESE 20:10:01 10° NE
STARLINK-67 3.6 20:03:06 10° WNW 20:05:15 41° NNW 20:05:15 41° NNW
STARLINK-1246 3.6 20:01:32 10° WSW 20:05:38 78° NNW 20:07:11 37° ENE
SL-8 R/B 3.8 20:01:43 10° W 20:06:25 58° SSW 20:07:34 45° SE
Meteor 2-10 4.0 20:01:27 10° S 20:06:48 80° E 20:12:24 10° NNE
STARLINK-1201 3.4 20:05:03 10° W 20:08:17 59° N 20:08:41 53° NNE
STARLINK-1097 4.2 20:04:34 10° WNW 20:08:32 44° SSW 20:09:16 40° S
ATLAS 2AS CENTAUR R/B 3.0 20:03:12 10° NW 20:10:56 64° NE 20:14:22 33° ESE
STARLINK-1224 3.6 20:08:41 10° W 20:12:45 74° NNW 20:13:58 43° ENE
STARLINK-1099 4.3 20:09:34 10° WNW 20:13:30 41° SW 20:14:04 39° SSW
Cosmos 1340 Rocket 4.5 20:15:29 22° NE 20:15:29 22° NE 20:17:20 10° NNE
STARLINK-1203 3.6 20:10:04 10° W 20:14:03 71° NNW 20:15:06 46° NE
USA 234 3.1 20:08:24 10° ENE 20:15:00 79° SSE 20:21:32 10° SW
Cosmos 2154 Rocket 3.9 20:09:22 10° N 20:15:47 79° ENE 20:18:59 32° SSE
H-2A R/B 4.3 20:11:56 10° SW 20:15:59 22° W 20:19:59 10° NW
USA 245 4.0 20:15:17 43° SE 20:17:01 74° ENE 20:22:58 10° NNW
STARLINK-1225 3.7 20:13:16 10° W 20:17:21 72° NNW 20:18:23 47° NE
DMSP B5D2-2 4.3 20:12:40 10° N 20:17:52 69° WNW 20:23:02 10° SSW
STARLINK-1104 4.4 20:14:34 10° WNW 20:18:27 39° SW 20:18:51 38° SSW
Resurs 01 Rocket 2.3 20:16:28 24° SSW 20:18:51 52° W 20:23:11 10° NNW
Cosmos 1328 3.7 20:15:51 10° N 20:19:53 86° WSW 20:20:25 66° S
STARLINK-1233 3.7 20:18:12 10° W 20:21:01 51° NNW 20:21:01 51° NNW
Cosmos 921 Rocket 4.0 20:17:47 10° N 20:21:21 32° NE 20:21:21 32° NE
STARLINK-1212 3.7 20:18:41 10° W 20:21:27 50° NNW 20:21:27 50° NNW
STARLINK-1230 3.7 20:18:02 10° W 20:22:06 70° NNW 20:22:57 52° NE
STARLINK-1105 3.7 20:19:07 10° W 20:21:54 50° NNW 20:21:54 50° NNW
SL-16 R/B 3.4 20:16:54 10° WSW 20:22:17 43° NW 20:27:42 10° NNE
STARLINK-1206 3.7 20:19:38 10° W 20:22:19 49° NW 20:22:19 49° NW
STARLINK-1247 3.8 20:20:04 10° W 20:22:44 48° NW 20:22:44 48° NW
Cosmos 2228 2.8 20:22:39 58° S 20:23:27 83° ESE 20:27:48 10° NNE
STARLINK-1227 3.8 20:20:29 10° W 20:23:12 49° NW 20:23:12 49° NW
STARLINK-1218 3.8 20:20:58 10° W 20:23:36 47° NW 20:23:36 47° NW
STARLINK-1226 3.8 20:21:25 10° W 20:24:03 47° NW 20:24:03 47° NW
Cosmos 967 Rocket 4.4 20:18:16 10° SSW 20:24:36 63° ESE 20:31:01 10° NE
STARLINK-1254 3.8 20:21:50 10° W 20:24:30 48° NW 20:24:30 48° NW
STARLINK-1215 3.9 20:22:20 10° W 20:24:54 46° NW 20:24:54 46° NW
STARLINK-1231 3.9 20:22:46 10° W 20:25:19 46° NW 20:25:19 46° NW
STARLINK-1232 3.9 20:23:41 10° W 20:26:12 45° NW 20:26:12 45° NW
STARLINK-1243 3.8 20:22:53 10° W 20:26:57 69° NNW 20:27:35 57° NE
STARLINK-1217 4.0 20:24:08 10° W 20:26:38 44° NW 20:26:38 44° NW
Cosmos 1953 3.5 20:23:43 10° SW 20:27:29 41° WNW 20:31:17 10° N
STARLINK-1208 4.0 20:24:33 10° W 20:27:05 45° NW 20:27:05 45° NW
STARLINK-1229 4.0 20:25:01 10° W 20:27:29 43° NW 20:27:29 43° NW
STARLINK-1271 4.0 20:25:29 10° W 20:27:56 43° NW 20:27:56 43° NW
STARLINK-1270 4.1 20:25:57 10° W 20:28:22 42° NW 20:28:22 42° NW
STARLINK-1154 4.1 20:26:24 10° W 20:28:48 42° NW 20:28:48 42° NW
Iridium 4 Rocket 4.4 20:26:04 10° NNE 20:28:55 26° NE 20:28:55 26° NE
Cosmos 962 Rocket 4.4 20:23:51 10° N 20:30:03 66° ENE 20:31:43 47° SE
STARLINK-1197 4.1 20:27:18 10° W 20:29:41 41° NW 20:29:41 41° NW
STARLINK-1189 4.2 20:27:45 10° W 20:30:07 41° NW 20:30:07 41° NW
STARLINK-1187 4.2 20:28:37 10° W 20:31:00 41° NW 20:31:00 41° NW
STARLINK-1198 4.2 20:28:39 10° W 20:30:58 40° NW 20:30:58 40° NW
STARLINK-1188 4.2 20:28:40 10° W 20:30:59 40° NW 20:30:59 40° NW
STARLINK-1236 3.8 20:27:40 10° W 20:31:45 67° N 20:32:12 61° NNE
STARLINK-1235 4.2 20:29:20 10° W 20:31:42 40° NW 20:31:42 40° NW
STARLINK-1199 4.3 20:30:36 10° W 20:32:54 39° NW 20:32:54 39° NW
STARLINK-1191 4.3 20:31:03 10° W 20:33:19 39° NW 20:33:19 39° NW
Nadezhda 1 Rocket 4.0 20:29:47 20° S 20:34:24 89° E 20:40:49 10° N
STARLINK-1210 4.3 20:31:30 10° W 20:33:45 38° NW 20:33:45 38° NW
STARLINK-1221 4.3 20:31:58 10° W 20:34:12 38° NW 20:34:12 38° NW
STARLINK-1219 4.4 20:32:25 10° W 20:34:39 38° NW 20:34:39 38° NW
SL-8 Rocket 4.2 20:29:48 10° N 20:35:56 51° ENE 20:37:01 46° ESE
STARLINK-1222 4.4 20:32:52 10° W 20:35:04 37° NW 20:35:04 37° NW
STARLINK-1211 4.4 20:33:19 10° W 20:35:30 36° WNW 20:35:30 36° WNW
ISS -1.9 20:33:44 10° W 20:35:39 25° WSW 20:35:39 25° WSW
STARLINK-1214 4.4 20:33:46 10° W 20:35:56 36° WNW 20:35:56 36° WNW
STARLINK-1245 4.5 20:34:15 10° W 20:36:20 35° WNW 20:36:20 35° WNW
STARLINK-1238 4.5 20:34:38 10° W 20:36:47 36° WNW 20:36:47 36° WNW
STARLINK-1269 3.8 20:37:36 10° W 20:41:40 64° N 20:41:43 64° N
Cosmos 2058 Rocket 3.2 20:42:38 65° NE 20:42:38 65° NE 20:46:39 10° NNE
Cosmos 1703 4.1 20:39:36 10° NNW 20:43:24 46° W 20:43:49 44° WSW
Cosmos 2366 rocket 4.3 20:37:49 10° N 20:43:44 46° ENE 20:44:18 45° E
Cosmos 614 Rocket 4.4 20:44:49 46° ENE 20:44:49 46° ENE 20:48:51 10° NNE
Cosmos 1603 3.7 20:38:11 10° SSW 20:43:50 83° WNW 20:49:30 10° NNE
SPOT 5 2.9 20:44:26 55° NE 20:44:26 55° NE 20:48:17 10° N
Cosmos 2251 Rocket 4.1 20:39:28 10° SW 20:44:46 58° WNW 20:50:06 10° NNE
STARLINK-1200 3.9 20:42:27 10° W 20:46:21 62° NNW 20:46:21 62° NNW
CZ-4C R/B 4.3 20:41:54 10° NW 20:47:13 28° N 20:53:20 10° ENE
CZ-2C R/B 3.5 20:43:42 10° N 20:48:40 46° WNW 20:53:34 10° SW
IGS 5A 3.6 20:49:02 71° WNW 20:49:02 71° WNW 20:53:02 10° NNW
ERS-1 Rocket 2.8 20:48:37 75° ESE 20:48:56 79° ENE 20:53:59 10° NNW
Landsat 7 3.9 20:49:40 65° SSW 20:50:11 72° WSW 20:54:57 10° NNW
STARLINK-1192 4.1 20:47:13 10° W 20:50:56 59° NW 20:50:56 59° NW
STARLINK-1244 4.2 20:52:10 10° W 20:55:40 54° NW 20:55:40 54° NW
STARLINK-1138 4.4 20:56:44 10° W 21:00:03 50° NW 21:00:03 50° NW
Cosmos 1656 Rocket 4.0 20:55:34 10° NW 21:01:07 56° WSW 21:02:04 50° SSW
Aureole 1 Rocket 4.2 21:01:51 34° SSW 21:05:34 78° ESE 21:12:01 10° NNE
CARTOSAT-1 4.0 21:07:29 59° NNW 21:07:29 59° NNW 21:11:04 10° NNW
COSMOS 2455 2.8 21:08:49 10° NW 21:14:53 73° NE 21:15:09 72° ENE
In-Cosmos 22 Rocket 4.2 21:14:28 10° N 21:20:10 78° ENE 21:20:10 78° ENE
Cosmos 2341 Rocket 4.3 21:15:05 10° NNW 21:21:22 63° W 21:22:43 51° SW
Cosmos 1461 3.9 21:17:35 10° NW 21:20:56 50° NNW 21:20:56 50° NNW
Cosmos 2369 Rocket 4.1 21:18:54 10° NW 21:22:59 21° W 21:25:03 17° SW
Cosmos 1763 Rocket 4.4 21:23:16 10° NNW 21:27:28 38° NE 21:27:28 38° NE
NOSS 3-4 (A) 3.9 21:22:23 10° NW 21:29:15 65° SW 21:30:09 60° SSW
NOSS 3-4 (C) 3.9 21:22:29 10° NW 21:29:21 66° SW 21:30:14 61° SSW
ATLAS CENTAUR R/B 3.9 21:29:19 10° NNW 21:31:38 15° NNE 21:31:52 14° NNE
Terra 2.4 21:32:45 55° NW 21:32:45 55° NW 21:36:36 10° NNW
Meteor 2-12 Rocket 4.4 21:30:41 10° N 21:36:34 80° NNE 21:36:34 80° NNE
Cosmos 1818 4.3 21:39:12 45° NNE 21:39:12 45° NNE 21:42:58 10° NE
Cosmos 2218 Rocket 4.1 21:42:21 10° NNW 21:48:27 63° W 21:48:36 63° WSW
Cosmos 1943 4.4 21:43:28 10° WSW 21:48:47 40° NW 21:54:09 10° NNE
Cosmos 1140 Rocket 4.3 21:56:03 46° N 21:56:03 46° N 21:59:48 10° NNE
USA 234 3.7 21:51:30 10° ENE 21:57:53 58° NNW 22:04:17 10° W
Cosmos 2181 Rocket 4.4 22:00:17 54° W 22:00:53 56° WNW 22:07:02 10° N
ATLAS 2AS CENTAUR R/B 3.5 21:54:40 10° NW 22:01:39 42° WSW 22:01:48 42° WSW
Cosmos 1697 Rocket 3.7 22:05:37 10° NNW 22:10:12 41° NNE 22:10:12 41° NNE
Mayak 1.1 22:14:01 10° N 22:15:32 21° N 22:15:32 21° N
Cosmos 1980 Rocket 3.4 22:31:10 10° NNW 22:35:27 36° NNE 22:35:27 36° NNE
CZ-4C R/B 3.5 22:30:50 10° NW 22:37:21 48° NNE 22:38:44 44° ENE
Nadezhda 3 Rocket 4.4 22:38:52 61° N 22:38:52 61° N 22:44:01 10° N
Cosmos 2082 Rocket 4.3 23:00:51 18° NE 23:00:51 18° NE 23:02:31 10° NE
ATLAS CENTAUR R/B 4.4 23:07:45 10° NNW 23:08:02 12° NNW 23:08:02 12° NNW
ATLAS 5 CENTAUR R/B 3.9 23:20:05 23° NNE 23:20:05 23° NNE 23:22:15 10° NE
Cosmos 1833 Rocket 4.1 23:28:31 32° NE 23:28:31 32° NE 23:31:30 10° NNE
USA 234 3.9 23:34:07 10° E 23:40:25 52° N 23:46:43 10° WNW
SL-16 R/B 3.7 23:52:44 34° ENE 23:53:15 35° ENE 23:58:48 10° N
